| time (UTC) | temp F | wind direction | speed knots | gust knots | rain 1hr in | rain 24hr in | rain mn in | humidity % | barometer mb |
| 20260505111526 | 47 | 294 | 0.9 | 6.1 | 0.00 | 0.00 | 0.00 | 87 | 1006.3 |
| 20260505101514 | 49 | 234 | 0.0 | 3.5 | 0.00 | 0.00 | 0.00 | 83 | 1005.4 |
| 20260505100034 | 49 | 292 | 0.0 | 2.6 | 0.00 | 0.00 | 0.00 | 84 | 1005.4 |
| 20260505094507 | 50 | 265 | 0.0 | 2.6 | 0.00 | 0.00 | 0.00 | 80 | 1005.2 |
| 20260505093032 | 50 | 247 | 0.0 | 1.7 | 0.00 | 0.00 | 0.00 | 82 | 1005.4 |
| 20260505091507 | 51 | 269 | 0.0 | 2.6 | 0.00 | 0.00 | 0.00 | 82 | 1004.8 |
| 20260505090026 | 51 | 259 | 0.0 | 4.3 | 0.00 | 0.00 | 0.00 | 77 | 1004.6 |
| 20260505084600 | 51 | 254 | 0.0 | 3.5 | 0.00 | 0.00 | 0.00 | 81 | 1004.6 |
| 20260505084501 | 51 | 257 | 0.0 | 3.5 | 0.00 | 0.00 | 0.00 | 80 | 1004.4 |
| 20260505083028 | 51 | 220 | 0.0 | 3.5 | 0.00 | 0.00 | 0.00 | 82 | 1004.1 |
| 20260505081603 | 51 | 281 | 0.9 | 3.5 | 0.00 | 0.00 | 0.00 | 84 | 1003.7 |
| 20260505081502 | 51 | 281 | 0.9 | 3.5 | 0.00 | 0.00 | 0.00 | 84 | 1003.6 |
| 20260505080026 | 51 | 258 | 0.0 | 0.0 | 0.00 | 0.01 | 0.00 | 87 | 1003.6 |
| 20260505074554 | 51 | 231 | 0.0 | 0.9 | 0.00 | 0.01 | 0.00 | 88 | 1003.5 |
| 20260505073014 | 53 | 291 | 0.0 | 0.9 | 0.00 | 0.01 | 0.00 | 87 | 1003.0 |
| 20260505071553 | 54 | 271 | 0.0 | 0.9 | 0.00 | 0.01 | 0.00 | 85 | 1003.4 |
| 20260505070008 | 55 | 219 | 0.9 | 3.5 | 0.00 | 0.01 | 0.00 | 79 | 1003.5 |
| 20260505064541 | 56 | 237 | 1.7 | 3.5 | 0.00 | 0.01 | 0.00 | 81 | 1003.6 |
| 20260505063052 | 56 | 239 | 0.0 | 1.7 | 0.00 | 0.01 | 0.00 | 83 | 1003.1 |
| 20260505061517 | 56 | 184 | 0.0 | 1.7 | 0.00 | 0.01 | 0.00 | 83 | 1003.0 |
| 20260505060035 | 57 | 338 | 0.0 | 7.0 | 0.00 | 0.01 | 0.00 | 83 | 1002.9 |
| 20260505054504 | 58 | 256 | 0.9 | 5.2 | 0.00 | 0.01 | 0.00 | 81 | 1002.5 |
| 20260505053011 | 59 | 225 | 0.9 | 3.5 | 0.00 | 0.01 | 0.00 | 81 | 1002.0 |
| 20260505051518 | 60 | 340 | 1.7 | 7.8 | 0.00 | 0.01 | 0.00 | 80 | 1001.8 |
| 20260505041551 | 61 | 198 | 0.9 | 4.3 | 0.00 | 0.01 | 0.00 | 85 | 1000.6 |
| 20260505040048 | 61 | 265 | 2.6 | 5.2 | 0.00 | 0.01 | 0.01 | 85 | 1000.6 |
| 20260505034525 | 61 | 202 | 2.6 | 7.0 | 0.00 | 0.01 | 0.01 | 85 | 1000.7 |
| 20260505033105 | 61 | 186 | 2.6 | 6.1 | 0.00 | 0.01 | 0.01 | 84 | 1000.6 |
| 20260505031524 | 61 | 246 | 2.6 | 7.0 | 0.00 | 0.01 | 0.01 | 83 | 1000.6 |
| 20260505030044 | 61 | 219 | 1.7 | 5.2 | 0.00 | 0.01 | 0.01 | 83 | 1000.6 |
| 20260505024528 | 61 | 220 | 1.7 | 4.3 | 0.00 | 0.01 | 0.01 | 82 | 1000.2 |
| 20260505023048 | 62 | 167 | 1.7 | 4.3 | 0.00 | 0.01 | 0.01 | 82 | 1000.1 |
| 20260505021516 | 63 | 217 | 2.6 | 6.1 | 0.00 | 0.01 | 0.01 | 81 | 1000.5 |
| 20260505020043 | 63 | 233 | 3.5 | 7.0 | 0.00 | 0.01 | 0.01 | 80 | 1000.6 |
| 20260505014515 | 64 | 156 | 2.6 | 10.4 | 0.00 | 0.01 | 0.01 | 80 | 1000.5 |
| 20260505013035 | 64 | 194 | 4.3 | 9.6 | 0.00 | 0.01 | 0.01 | 77 | 1000.0 |
| 20260505011509 | 66 | 179 | 4.3 | 11.3 | 0.00 | 0.01 | 0.01 | 80 | 999.2 |
| 20260505010028 | 68 | 182 | 2.6 | 9.6 | 0.00 | 0.01 | 0.01 | 77 | 999.7 |
| 20260505004600 | 69 | 182 | 0.9 | 3.5 | 0.00 | 0.01 | 0.01 | 76 | 999.1 |
| 20260505003021 | 70 | 254 | 2.6 | 8.7 | 0.00 | 0.01 | 0.01 | 74 | 999.4 |
| 20260505001551 | 71 | 186 | 2.6 | 10.4 | 0.00 | 0.01 | 0.01 | 70 | 999.2 |
| 20260505000018 | 72 | 198 | 4.3 | 7.8 | 0.00 | 0.01 | 0.01 | 66 | 999.2 |
| 20260504234612 | 72 | 205 | 1.7 | 7.8 | 0.00 | 0.01 | 0.01 | 65 | 999.2 |
| 20260504233057 | 75 | 184 | 4.3 | 9.6 | 0.00 | 0.01 | 0.01 | 61 | 999.4 |
| 20260504231537 | 76 | 209 | 0.9 | 5.2 | 0.00 | 0.01 | 0.01 | 54 | 999.2 |
| 20260504230037 | 76 | 180 | 2.6 | 6.1 | 0.00 | 0.01 | 0.01 | 53 | 999.2 |
| 20260504224503 | 77 | 272 | 2.6 | 5.2 | 0.00 | 0.01 | 0.01 | 52 | 999.6 |
| 20260504223059 | 77 | 232 | 1.7 | 6.1 | 0.00 | 0.01 | 0.01 | 53 | 999.7 |
| 20260504223005 | 77 | 215 | 1.7 | 6.1 | 0.00 | 0.01 | 0.01 | 52 | 999.6 |
| 20260504221511 | 78 | 299 | 1.7 | 5.2 | 0.00 | 0.01 | 0.01 | 52 | 999.8 |
| 20260504220004 | 78 | 242 | 3.5 | 8.7 | 0.00 | 0.01 | 0.01 | 51 | 999.9 |
| 20260504214518 | 79 | 189 | 2.6 | 6.1 | 0.00 | 0.01 | 0.01 | 51 | 1000.1 |
| 20260504213009 | 80 | 249 | 0.9 | 6.1 | 0.00 | 0.01 | 0.01 | 51 | 1000.4 |
| 20260504211515 | 80 | 180 | 2.6 | 7.8 | 0.00 | 0.01 | 0.01 | 50 | 1000.7 |
| 20260504210013 | 79 | 249 | 0.9 | 10.4 | 0.00 | 0.01 | 0.01 | 53 | 1000.9 |
| 20260504204550 | 79 | 148 | 3.5 | 8.7 | 0.00 | 0.01 | 0.01 | 53 | 1000.9 |
| 20260504203031 | 80 | 315 | 1.7 | 9.6 | 0.00 | 0.01 | 0.01 | 54 | 1001.2 |
| 20260504201551 | 80 | 330 | 2.6 | 7.8 | 0.00 | 0.01 | 0.01 | 52 | 1001.3 |
| 20260504200038 | 80 | 245 | 3.5 | 7.8 | 0.00 | 0.01 | 0.01 | 49 | 1001.3 |
| 20260504194552 | 79 | 151 | 5.2 | 13.0 | 0.00 | 0.01 | 0.01 | 48 | 1001.6 |
| 20260504193039 | 78 | 252 | 5.2 | 8.7 | 0.00 | 0.01 | 0.01 | 48 | 1001.6 |
| 20260504191553 | 79 | 254 | 3.5 | 10.4 | 0.00 | 0.01 | 0.01 | 48 | 1001.7 |
| 20260504190042 | 79 | 246 | 4.3 | 9.6 | 0.00 | 0.01 | 0.01 | 49 | 1001.7 |
| 20260504184602 | 79 | 244 | 2.6 | 11.3 | 0.00 | 0.01 | 0.01 | 50 | 1002.0 |
| 20260504183043 | 78 | 190 | 4.3 | 11.3 | 0.00 | 0.01 | 0.01 | 50 | 1002.2 |
| 20260504181549 | 77 | 251 | 2.6 | 11.3 | 0.00 | 0.01 | 0.01 | 50 | 1002.2 |
| 20260504180040 | 77 | 159 | 4.3 | 13.0 | 0.00 | 0.01 | 0.01 | 45 | 1002.3 |
| 20260504174549 | 77 | 263 | 3.5 | 9.6 | 0.00 | 0.01 | 0.01 | 46 | 1002.3 |
| 20260504173034 | 77 | 214 | 4.3 | 11.3 | 0.00 | 0.01 | 0.01 | 46 | 1002.5 |
| 20260504171545 | 76 | 315 | 1.7 | 10.4 | 0.00 | 0.01 | 0.01 | 47 | 1002.8 |